Regional Weather Roundup
Issued by NWS

Home | Current Version | Previous Version | Text Only | Print | Product List | Glossary Off
Versions: 1 2 3 4 5 6 7 8 9 10 11 12 13 14 15 16 17 18 19 20 21 22 23 24 25 26 27 28 29 30 31 32 33 34 35 36 37 38 39 40 41 42 43 44 45 46 47 48 49 50

595
ASUS45 KCYS 241110
RWRWY

WYOMING REGIONAL WEATHER ROUNDUP
NATIONAL WEATHER SERVICE CHEYENNE WY
500 AM MDT FRI MAR 24 2017

NOTE:  "FAIR" INDICATES FEW OR NO CLOUDS BELOW 12,000 FEET
WITH NO SIGNIFICANT WEATHER AND/OR OBSTRUCTIONS TO VISIBILITY.

WYZ001-241200-
YELLOWSTONE NATIONAL PARK

CITY           SKY/WX    TMP DP  RH WIND       PRES   REMARKS
LK YELLOWSTONE   N/A     16  14  92 CALM      30.14R
W YELLOWSTONE  NOT AVBL

$$
WYZ002>013-054>058-071-098>099-241200-
NORTHERN WYOMING

CITY           SKY/WX    TMP DP  RH WIND       PRES   REMARKS
JACKSON        FAIR      25  25 100 NE3       30.14R
CODY           FAIR      35  29  78 CALM      30.08R
GREYBULL       FAIR      34  32  92 SE7       30.08R WCI  28
WORLAND        FAIR      32  32 100 S6        30.07R WCI  26
SHERIDAN       FAIR      29  25  85 CALM      30.07R
BUFFALO        MOCLDY    38  29  70 W8        30.07R WCI  32
GILLETTE       FAIR      35  34  96 W14       30.06R WCI  26
HULETT         FAIR      32  32 100 S6        30.07R WCI  26
NEWCASTLE      FAIR      37  32  81 NW15      30.04S WCI  28

$$
WYZ014>020-022>026-101>103-241200-
CENTRAL WYOMING

CITY           SKY/WX    TMP DP  RH WIND       PRES   REMARKS
BIG PINEY      FAIR      24  22  91 S5        30.13R WCI  18
PINEDALE       FAIR      23  21  93 N7        30.13R WCI  15
DUBOIS         FAIR      25  21  86 W12       30.11R WCI  14
LANDER         FAIR      34  27  75 W10       30.09R WCI  26
RIVERTON       FAIR      33  32  96 W9        30.10R WCI  25
CASPER         CLOUDY    33  32  96 S6        30.09R WCI  28
DOUGLAS        CLOUDY    39  34  82 NW7       30.07R WCI  34

$$
WYZ021-027>030-104>119-241200-
SOUTHERN WYOMING

CITY           SKY/WX    TMP DP  RH WIND       PRES   REMARKS
EVANSTON       FAIR      29  23  78 SW3       30.15S
KEMMERER         N/A     30  23  74 W9        30.14R WCI  22
FORT BRIDGER   FAIR      33  32  96 W12       30.17  WCI  24
ROCK SPRINGS   CLOUDY    36  30  79 N5        30.12R WCI  32
DIXON            N/A     37  29  74 N12G18    30.10R WCI  29
RAWLINS        CLOUDY    34  29  82 N9        30.09R WCI  27
SARATOGA       CLOUDY    34  30  86 NW12G17   30.07R WCI  25
LARAMIE        LGT SNOW  31  30  96 N10       30.01S FOG     WCI  22
CHEYENNE       LGT SNOW  33  31  92 N18G26    29.98R FOG     WCI  22
TORRINGTON     CLOUDY    41  35  79 N8G18     30.01R
PINE BLUFFS    CLOUDY    36  36 100 N23G31    29.95R WCI  24

$$




USA.gov is the U.S. government's official web portal to all federal, state and local government web resources and services.